Location: Bacharowice
(49.9333°N, 19.5833°E)
Time: 02:25:38
(UTC+00:00)

BREEZE-M R/B - Pass Details

Date: 11 May 2021
Orbit: 311 x 4501 km, 49.7° (Epoch: 21 June)

Event Time Altitude Azimuth Distance (km) Brightness Sun altitude
Rises 21:03:09 0° 272° (W) 2,039 6.1 -18.8°
Reaches altitude 10° 21:04:53 10° 272° (W) 1,219 4.9 -18.9°
Enters shadow 21:06:45 50° 269° (W) 448 2.4 -19.0°
